Location: Adavinekkalam
(16.6301°N, 80.7229°E)
Time: 10:52:40
(UTC+00:00)

Cosmos 968 Rocket - Pass Details

Date: 15 May 2026
Orbit: 735 x 766 km, 74.0° (Epoch: 6 June)

Event Time Altitude Azimuth Distance (km) Brightness Sun altitude
Rises 14:48:17 0° 341° (NNW) 3,222 7.5 -24.2°
Reaches altitude 10° 14:50:40 10° 337° (NNW) 2,294 6.6 -24.7°
Maximum altitude 14:55:48 61° 258° (WSW) 860 3.8 -25.7°
Enters shadow 14:57:08 45° 204° (SSW) 1,023 4.0 -26.0°
